This is the latest recevied weather packets stored in our database for station/object WX0ABE-13. If no packets are shown the sender has not sent any weather packets the latest 10 day(s).
| Time | Temp. | Humidity | Pressure | Rain* | Wind** | Luminosity | Snow |
|---|---|---|---|---|---|---|---|
| 1788029023 | 33.89° C | 28% | 1015.3 hPa | 0 mm | - | 676 W/m² | - |
| 1788028722 | 33.89° C | 27% | 1015.7 hPa | 0 mm | - | 676 W/m² | - |
| 1788028417 | 34.44° C | 32% | 1015.6 hPa | 0 mm | - | 668 W/m² | - |
| 1788028113 | 34.44° C | 30% | 1015.5 hPa | 0 mm | - | 668 W/m² | - |
| 1788027807 | 33.89° C | 29% | 1015.5 hPa | 0 mm | - | 666 W/m² | - |
| 1788027506 | 33.33° C | 29% | 1015.7 hPa | 0 mm | - | 664 W/m² | - |
| 1788027202 | 33.33° C | 29% | 1015.7 hPa | 0 mm | - | 663 W/m² | - |
| 1788026901 | 33.33° C | 29% | 1015.6 hPa | 0 mm | - | 662 W/m² | - |
| 1788026596 | 33.33° C | 29% | 1015.7 hPa | 0 mm | - | 612 W/m² | - |
| 1788026297 | 33.89° C | 28% | 1015.9 hPa | 0 mm | - | 654 W/m² | - |
| 1788025992 | 33.33° C | 30% | 1015.8 hPa | 0 mm | - | 653 W/m² | - |
| 1788025691 | 32.78° C | 33% | 1015.9 hPa | 0 mm | - | 647 W/m² | - |
| 1788025390 | 32.78° C | 31% | 1016.1 hPa | 0 mm | - | 642 W/m² | - |
| 1788025086 | 32.22° C | 30% | 1015.9 hPa | 0 mm | - | 635 W/m² | - |
| 1788024786 | 32.78° C | 31% | 1016.1 hPa | 0 mm | - | 600 W/m² | - |
| 1788024482 | 32.78° C | 29% | 1016.3 hPa | 0 mm | - | 630 W/m² | - |
| 1788024181 | 32.22° C | 30% | 1016.1 hPa | 0 mm | - | 524 W/m² | - |
| 1788023877 | 32.22° C | 31% | 1016.2 hPa | 0 mm | - | 563 W/m² | - |
| 1788023572 | 31.67° C | 32% | 1016.1 hPa | 0 mm | - | 549 W/m² | - |
| 1788023267 | 31.67° C | 33% | 1016.2 hPa | 0 mm | - | 540 W/m² | - |
| 1788022962 | 31.67° C | 37% | 1016.1 hPa | 0 mm | - | 588 W/m² | - |
| 1788022660 | 31.67° C | 37% | 1016.3 hPa | 0 mm | - | 586 W/m² | - |
| 1788022359 | 31.11° C | 37% | 1016.4 hPa | 0 mm | - | 580 W/m² | - |
| 1788022059 | 30° C | 41% | 1016.3 hPa | 0 mm | - | 600 W/m² | - |
| 1788021753 | 29.44° C | 45% | 1016.2 hPa | 0 mm | - | 462 W/m² | - |
* Rain latest hour (hover to see other rain measurements)
** Current wind speed in m/s (hover to see current wind gust speed)